This demonstration page uses our WeatherBlox Daily Observations layout. Learn more.

Left ArrowRight Arrow

30.21309, -93.2044

Hourly Observations for October 7, 2022

Temp ( °F °C ) Dew Point ( °F °C ) Humidity (%) Winds ( mph kmh ) Pressure ( in mb ) Visibility ( mi km ) Precip ( " mm )
12:15 am 00:15 Clear 63 17.2 56 13.1 77 77 Calm 30.14 1021 10 16 0.00 0.00
12:35 am 00:35 Clear 63 17 56 13.5 80 80 Calm 30.14 1021 10 16 0.00 0.00
12:55 am 00:55 Clear 62 16.7 56 13.3 80 80 Calm 30.14 1021 10 16 0.00 0.00
1:15 am 01:15 Clear 61 16.3 55 12.9 80 80 Calm 30.14 1021 10 16 0.00 0.00
1:35 am 01:35 Clear 63 17.1 56 13.3 78 78 Calm 30.14 1021 10 16 0.00 0.00
1:55 am 01:55 Clear 61 16.3 55 13 81 81 Calm 30.14 1021 10 16 0.00 0.00
2:15 am 02:15 Clear 61 16.3 56 13.1 81 81 Calm 30.14 1021 10 16 0.00 0.00
2:35 am 02:35 Clear 61 16.3 56 13.2 82 82 Calm 30.14 1021 10 16 0.00 0.00
2:55 am 02:55 Clear 61 15.9 56 13.2 84 84 Calm 30.14 1021 10 16 0.00 0.00
3:15 am 03:15 Clear 60 15.8 56 13.2 85 85 Calm 30.14 1021 10 16 0.00 0.00
3:35 am 03:35 Clear 61 16.2 57 13.9 86 86 Calm 30.14 1021 10 16 0.00 0.00
3:55 am 03:55 Clear 63 17 58 14.2 84 84 Calm 30.14 1021 10 16 0.00 0.00
4:15 am 04:15 Clear 63 17.1 59 15 87 87 Calm 30.14 1021 10 16 0.00 0.00
4:35 am 04:35 Clear 64 17.9 60 15.6 86 86 NNW 3 6 30.14 1021 10 16 0.00 0.00
4:55 am 04:55 Clear 63 17.2 60 15.8 91 91 Calm 30.14 1021 10 16 0.00 0.00
5:15 am 05:15 Clear 64 18 61 16.2 89 89 N 3 6 30.14 1021 10 16 0.00 0.00
5:35 am 05:35 Clear 64 18 61 16.2 89 89 NNW 3 6 30.15 1021 7 11 0.00 0.00
6:00 am 06:00 Mostly Clear 64 18 61 16 88 88 Calm 30.15 1021 10 16 0.00 0.00
6:55 am 06:55 Mostly Clear with Mist and Fog 61 16 57 14 88 88 Calm 30.17 1022 6 10 0.00 0.00
7:50 am 07:50 Partly Cloudy with Mist and Fog 64 18 63 17 94 94 Calm 30.19 1022 10 16 0.00 0.00
8:47 am 08:47 Mostly Sunny 72 22 64 18 78 78 NNW 5 7 30.20 1023 10 16 0.00 0.00
9:46 am 09:46 Mostly Sunny 77 25 63 17 61 61 NW 5 7 30.21 1023 10 16 0.00 0.00
10:50 am 10:50 Mostly Sunny 82 28 57 14 42 42 NNW 5 7 30.20 1023 10 16 0.00 0.00
11:55 am 11:55 Mostly Sunny 86 30 55 13 35 35 VRB 5 7 30.19 1022 10 16 0.00 0.00
12:50 pm 12:50 Mostly Sunny 88 31 55 13 33 33 WNW 5 7 30.17 1022 10 16 0.00 0.00
1:48 pm 13:48 Mostly Sunny 88 31 54 12 31 31 NNE 6 9 30.14 1021 10 16 0.00 0.00
2:45 pm 14:45 Mostly Sunny 88 31 54 12 31 31 VRB 3 6 30.12 1020 10 16 0.00 0.00
3:49 pm 15:49 Mostly Sunny 90 32 55 13 32 32 N 6 9 30.11 1020 10 16 0.00 0.00
4:45 pm 16:45 Mostly Sunny 88 31 54 12 31 31 Calm 30.10 1019 10 16 0.00 0.00
5:45 pm 17:45 Partly Cloudy 86 30 55 13 35 35 Calm 30.09 1019 10 16 0.00 0.00
6:45 pm 18:45 Partly Cloudy 82 28 59 15 45 45 VRB 6 9 30.10 1019 10 16 0.00 0.00
7:50 pm 19:50 Cloudy 81 27 64 18 58 58 VRB 6 9 30.13 1020 10 16 0.00 0.00
8:46 pm 20:46 Partly Cloudy 81 27 64 18 58 58 VRB 5 7 30.13 1020 10 16 0.00 0.00
9:45 pm 21:45 Mostly Clear 79 26 64 18 61 61 VRB 6 9 30.15 1021 10 16 0.00 0.00
10:15 pm 22:15 Mostly Cloudy 78 25.8 63 17.4 60 60 NNW 5 7 30.16 1021 10 16 0.00 0.00
10:35 pm 22:35 Cloudy 79 26 62 16.8 57 57 Calm 30.16 1021 10 16 0.00 0.00
10:55 pm 22:55 Mostly Cloudy 75 24 63 17.4 67 67 Calm 30.16 1021 10 16 0.00 0.00
11:15 pm 23:15 Partly Cloudy 76 24.5 61 16.2 60 60 NNE 3 6 30.16 1021 10 16 0.00 0.00
11:35 pm 23:35 Clear 75 24 60 15.7 60 60 N 5 7 30.17 1022 10 16 0.00 0.00
11:55 pm 23:55 Partly Cloudy 74 23.6 61 16.3 64 64 NNE 6 9 30.17 1022 10 16 0.00 0.00

Powered by AerisWeather